Regional Weather Roundup
Issued by NWS

Home | Current Version | Previous Version | Text Only | Print | Product List | Glossary Off
Versions: 1 2 3 4 5 6 7 8 9 10 11 12 13 14 15 16 17 18 19 20 21 22 23 24 25 26 27

000
ASUS45 KPSR 280910
RWRAZ

ARIZONA HOURLY REGIONAL WEATHER ROUNDUP
NATIONAL WEATHER SERVICE PHOENIX AZ
200 AM MST FRI APR 28 2017

NOTE: FAIR INDICATES FEW OR NO CLOUDS BELOW 12,000 FEET WITH NO
SIGNIFICANT WEATHER AND/OR OBSTRUCTIONS TO VISIBILITY.

AZZ001>003-036-281000-
NORTHWEST ARIZONA

CITY           SKY/WX    TMP DP  RH WIND       PRES   REMARKS
BULLHEAD CITY  PTCLDY    75  19  12 N18G24    29.61R
KINGMAN        CLEAR     53  13  20 VRB3      29.73R
$$

AZZ004>008-015-016-018-281000-
NORTH CENTRAL ARIZONA

CITY           SKY/WX    TMP DP  RH WIND       PRES   REMARKS
GRAND CANYON   CLOUDY    42  15  33 SW5       29.80F
WILLIAMS       CLEAR     41  18  38 NW6       29.82S
PRESCOTT       MOCLDY    54  33  45 S7        29.74F
FLAGSTAFF      CLEAR     43  21  41 W5        29.81S
PAYSON         MOCLDY    61  30  31 SW6       29.77F
PAGE           MOCLDY    53  22  29 VRB7G16   29.77R
$$

AZZ009>014-017-281000-
NORTHEAST ARIZONA

CITY           SKY/WX    TMP DP  RH WIND       PRES   REMARKS
WINSLOW        PTCLDY    48  25  40 SW8       29.71F
SAINT JOHNS    CLEAR     54  34  46 SW14      29.73F
WINDOW ROCK    CLOUDY    45  14  28 E7        29.76F
SHOW LOW       PTCLDY    46  32  57 S9        29.80S
$$

AZZ540-542>544-546-548-281000-
GREATER PHOENIX AREA

CITY           SKY/WX    TMP DP  RH WIND       PRES   REMARKS
PHOENIX        CLOUDY    78  47  33 W16       29.56F
BUCKEYE        CLOUDY    73  45  35 SW10      29.60R
LUKE AFB       CLOUDY    75  48  38 S17       29.56F
DEER VALLEY    CLOUDY    73  48  41 SW13      29.58F
SCOTTSDALE     CLOUDY    75  47  36 W12       29.60F
MESA-GATEWAY   MOCLDY    73  46  38 SW9       29.60S
$$

AZZ539-553-281000-
SOUTHWEST MARICOPA COUNTY AND PINAL COUNTY

CITY           SKY/WX    TMP DP  RH WIND       PRES   REMARKS
CASA GRANDE    MOCLDY    73  43  33 SW15      29.62F
GILA BEND      FAIR      76  42  28 SW14      29.58S
$$

AZZ503-504-507>509-281000-
SOUTHEAST ARIZONA

CITY           SKY/WX    TMP DP  RH WIND       PRES   REMARKS
TUCSON         CLEAR     69  38  32 CALM      29.73S
DAVIS-MONTHAN  PTCLDY    69  40  33 CALM      29.72F
NOGALES        PTCLDY    63  41  44 S10       29.80F
SIERRA VISTA   PTCLDY    64  38  37 S9G26     29.81F
DOUGLAS        PTCLDY    64  41  42 SW14      29.79F
SAFFORD        PTCLDY    68  34  28 N10       29.65F
$$

AZZ532-281000-
SOUTHWEST ARIZONA

CITY           SKY/WX    TMP DP  RH WIND       PRES   REMARKS
YUMA           CLOUDY    72  58  61 S6        29.60S
$$

CAZ041-043-047-048-061-525>527-560>570-281000-
SOUTHERN CALIFORNIA

CITY           SKY/WX    TMP DP  RH WIND       PRES   REMARKS
DOWNTOWN L.A.  CLEAR     71  31  22 NW9       29.72F
L.A. AIRPORT   PTCLDY    71  32  23 N16G23    29.73S
SAN DIEGO      PTCLDY    62  59  90 S7        29.78F
BURBANK        CLEAR     68  29  23 NW20G29   29.76F
ONTARIO        PTCLDY    62  45  53 CALM      29.73S
RIVERSIDE      CLEAR     61  51  70 CALM      29.73F
PALM SPRINGS   CLEAR     76  42  29 W12       29.60F
EL CENTRO NAS  PTCLDY    70  38  31 W7        29.60R
IMPERIAL       MOCLDY    72  42  34 W9        29.58R
BLYTHE         CLOUDY    76  38  25 N10       29.59S
NEEDLES        MOCLDY    77  12   8 N14       29.61S
$$

NVZ020-UTZ003-281000-
SOUTHERN NEVADA-UTAH

CITY           SKY/WX    TMP DP  RH WIND       PRES   REMARKS
LAS VEGAS      MOCLDY    67   8  10 NE24G30   29.74R
SALT LAKE CITY CLOUDY    40  32  73 CALM      29.87R
$$

NMZ009-TXZ055-281000-
NEW MEXICO-WEST TEXAS

CITY           SKY/WX    TMP DP  RH WIND       PRES   REMARKS
ALBUQUERQUE    CLEAR     48  27  44 N13       29.75F
EL PASO        PTCLDY    74  37  26 W22G30    29.70S
$$


........................KEY........................
SKY/WX - SKY CONDITION/WEATHER
TMP    - TEMPERATURE IN FAHRENHEIT
DP     - DEW POINT IN FAHRENHEIT
RH     - RELATIVE HUMIDITY IN PERCENT
WIND   - DIRECTION AND SPEED IN MILES PER HOUR (MPH)
VRB    - VARIABLE WIND DIRECTION
PRES   - MEAN SEA LEVEL PRESSURE IN INCHES OF MERCURY
         F - FALLING PRESSURE   R - RISING PRESSURE
         S - STEADY PRESSURE
VSB    - VISIBILITY IN MILES
HX     - HEAT INDEX IN FAHRENHEIT
WCI    - WIND CHILL INDEX IN FAHRENHEIT
TC     - TEMPERATURE IN CELSIUS WHICH IS ALSO KNOWN AS
         TEMPERATURE IN CENTIGRADE
AFB    - AIR FORCE BASE
         LUKE AFB IS LUKE AIR FORCE BASE
         DAVIS-MONTHAN IS DAVIS-MONTHAN AIR FORCE BASE
NAS    - NAVAL AIR STATION
         EL CENTRO NAS IS EL CENTRO NAVAL AIR STATION
N/A    - NOT AVAILABLE





USA.gov is the U.S. government's official web portal to all federal, state and local government web resources and services.